TIME,DELAY(SENSOR),PRES,OXYGEN,RAWTEMP,T(OPTODE),TCPHASE,FLUOR,BETA(BETA700),BETA(BETA412),BETA(BETA440),CDOM,C(CSC),ED(ED412.40),ED(ED444.00),ED(ED489.70),ED(ED554.30),LU(LU411.80),LU(LU443.40),LU(LU489.60),LU(LU554.10),COMP,TILTX,TILTY,CHECK
1348803466,5810,831.4899902343750000,43.1441001892089840,658.3432006835938000,4.6825032234191895,54.5114784240722660,53,102,91,80,80,15246,2147762468,2147422482,2148008091,2147874651,2147637650,2147063250,2148263286,2147198866,910,5,13,15683
1348807062,5808,898.6599731445312000,46.7231903076171900,667.4260864257812000,4.3831839561462400,54.1010284423828100,52,99,88,80,83,15241,2147764077,2147424201,2148007762,2147872896,2147640246,2147063643,2148259821,2147199771,2576,4,13,20297
1348810662,5812,909.7000122070312000,47.2965507507324200,668.8637695312500000,4.3357219696044920,54.0320587158203100,53,99,87,79,81,15240,2147763949,2147422619,2148010852,2147875995,2147643931,2147059501,2148266194,2147194532,446,4,13,36533
1348814262,5808,945.4199829101562000,47.6430015563964840,670.6693115234375000,4.2760848999023440,54.0066604614257800,53,98,90,79,81,15226,2147764086,2147419520,2148008128,2147873481,2147643373,2147064064,2148259456,2147195712,197,5,13,19524
1348817862,5806,944.5399780273438000,47.6385688781738300,670.6857910156250000,4.2755408287048340,54.0085983276367200,53,98,90,79,82,15241,2147763684,2147422500,2148007808,2147873517,2147642925,2147062985,2148262573,2147198253,125,5,13,22566
1348821462,5810,951.0300292968750000,47.5299301147460940,670.7664794921875000,4.2728729248046875,54.0260009765625000,52,112,85,79,81,15238,2147762249,2147425581,2148007789,2147874605,2147642532,2147060800,2148261494,2147201179,3,5,13,35900
1348825062,5806,972.8800048828125000,48.1200218200683600,673.7363891601562000,4.1746921539306640,53.9801292419433600,53,97,90,80,80,15240,2147761974,2147424868,2148008356,2147874587,2147643282,2147061449,2148262710,2147197165,108,4,13,39386
1348828662,5810,963.8699951171875000,48.1271514892578100,673.8341064453125000,4.1714591979980470,53.9757194519043000,52,102,89,80,81,15214,2147763373,2147421997,2148010176,2147875428,2147642029,2147060626,2148265152,2147196461,577,5,13,33490
1348832262,5810,977.6500244140625000,48.5392417907714840,675.6253051757812000,4.1121921539306640,53.9417610168457000,52,99,87,79,83,15211,2147762304,2147424237,2148010596,2147871817,2147644699,2147061540,2148265773,2147200064,609,5,13,25190
1348835862,5811,981.5999755859375000,48.4027214050293000,674.3355102539062000,4.1548728942871090,53.9435081481933600,53,99,90,81,82,15214,2147767881,2147421632,2148011940,2147874148,2147643172,2147060845,2148256493,2147198372,38,5,13,10845
1348839462,5807,980.4099731445312000,48.2216606140136700,674.5087280273438000,4.1491432189941410,53.9711799621582000,52,97,85,78,82,15212,2147759040,2147422765,2148006116,2147873645,2147644982,2147055378,2148265024,2147198198,175,4,13,46829
1348843062,5807,969.5499877929688000,48.4881782531738300,675.5830078125000000,4.1135921478271480,53.9532203674316400,52,100,87,77,82,15214,2147760685,2147421494,2148010514,2147873938,2147646153,2147062262,2148259977,2147197385,3512,5,13,14519
1348846662,5807,984.1199951171875000,48.6785697937011700,675.5264282226562000,4.1154670715332030,53.9226188659668000,53,97,86,79,82,15207,2147765650,2147423963,2148008027,2147873444,2147641472,2147064384,2148260077,2147198765,3390,4,13,33694
1348850262,5810,973.9099731445312000,48.5347785949707000,675.4365844726562000,4.1184391975402830,53.9449501037597660,53,100,88,78,81,15212,2147764059,2147422656,2148009554,2147871542,2147642340,2147061622,2148262939,2147196553,205,5,13,4722
1348853862,5809,981.8099975585938000,48.4213218688964840,675.7678222656250000,4.1074748039245605,53.9637985229492200,53,100,89,79,81,15206,2147761846,2147421257,2148004882,2147873453,2147644891,2147060425,2148257417,2147193609,294,5,13,50799
1348857462,5809,987.4199829101562000,48.6614990234375000,675.7827148437500000,4.1069850921630860,53.9254989624023440,53,100,85,79,81,15210,2147760283,2147422299,2148010642,2147874697,2147642432,2147067008,2148262427,2147192576,3238,5,13,53107
1348861062,5809,993.8599853515625000,48.0317802429199200,673.6859130859375000,4.1763610839843750,53.9885292053222660,53,99,89,79,81,15212,2147760996,2147417645,2148008384,2147873398,2147644882,2147060809,2148260781,2147200996,791,5,13,36003
1348864662,5809,988.7600097656250000,47.6360702514648440,673.6254882812500000,4.1783580780029300,54.0438117980957000,53,99,90,79,82,15205,2147760393,2147420717,2148006701,2147878198,2147645330,2147059830,2148264795,2147196242,333,5,13,64816
1348868262,5809,994.1099853515625000,47.7207183837890600,673.5485839843750000,4.1809010505676270,54.0317993164062500,53,97,88,80,81,15208,2147762468,2147420928,2148007908,2147876489,2147641152,2147064192,2148264466,2147196662,540,5,13,36645
1348871862,5808,989.8099975585938000,47.2836189270019500,673.6851196289062000,4.1763858795166020,54.0953102111816400,53,97,86,79,81,15207,2147759744,2147420827,2148008045,2147874377,2147643638,2147057782,2148263323,2147196022,315,5,13,61570
1348875462,5806,991.4099731445312000,47.7478981018066400,673.5172729492188000,4.1819357872009280,54.0305900573730500,53,97,87,80,80,15210,2147762870,2147422171,2148008073,2147874395,2147643474,2147061568,2148262838,2147194998,661,5,13,3493
1348879062,5811,990.1099853515625000,47.0733718872070300,673.5029296875000000,4.1824150085449220,54.1227607727050800,52,98,84,79,81,15207,2147761106,2147421979,2148009947,2147875062,2147644489,2147060397,2148260452,2147202185,98,5,13,60933
1348882662,5810,989.5300292968750000,47.3623008728027340,673.8607788085938000,4.1705741882324220,54.0845298767089840,53,97,88,78,81,15205,2147764745,2147419757,2148009563,2147875419,2147640310,2147061147,2148259885,2147195629,164,5,13,64912
1348886262,5810,980.7100219726562000,48.1612091064453100,676.0413208007812000,4.0984230041503910,54.0001792907714840,52,98,88,79,81,15208,2147762944,2147420160,2148010029,2147874998,2147645101,2147064896,2148262619,2147195190,121,5,13,36694
1348889862,5812,975.3699951171875000,48.2999000549316400,675.7877197265625000,4.1068167686462400,53.9759216308593750,52,99,88,80,82,15207,2147760630,2147421805,2148010688,2147871808,2147641078,2147060534,2148264731,2147195666,441,5,13,47797
1348893462,5810,987.0399780273438000,48.6010704040527340,675.4746704101562000,4.1171760559082030,53.9306602478027340,53,99,85,79,81,15209,2147762514,2147420900,2148011940,2147875172,2147641828,2147063890,2148261732,2147198043,784,5,13,46903
1348897062,5807,981.3699951171875000,47.9597511291503900,676.9868774414062000,4.0671157836914060,54.0389709472656250,53,100,84,79,82,15208,2147763593,2147422482,2148009179,2147875099,2147641426,2147059428,2148263414,2147198555,579,5,13,9395
1348900662,5810,991.2500000000000000,48.5256004333496100,675.4525756835938000,4.1179080009460450,53.9397811889648440,52,101,87,78,81,15198,2147764132,2147420297,2148011584,2147874907,2147642477,2147064530,2148262802,2147198281,581,5,13,42090
1348904262,5812,998.9899902343750000,47.2766494750976560,673.5139770507812000,4.1820468902587890,54.0959701538085940,52,98,86,80,82,15202,2147762998,2147421138,2148011620,2147875958,2147642624,2147061677,2148258294,2147197348,3217,4,13,65081
1348907862,5805,998.5200195312500000,47.2488403320312500,672.7767944335938000,4.2064251899719240,54.0924415588378900,53,99,83,79,82,15203,2147765010,2147421467,2148010084,2147875364,2147643529,2147063625,2148258678,2147198381,152,5,13,35511
1348911462,5810,995.3800048828125000,46.8047294616699200,672.7523193359375000,4.2072348594665530,54.1517486572265600,52,101,86,79,82,15204,2147764800,2147421522,2148006838,2147873929,2147643090,2147067611,2148263387,2147198665,3424,4,13,12895
1348915062,5810,988.9500122070312000,47.4456787109375000,673.6403198242188000,4.1778697967529300,54.0732612609863300,53,102,91,79,82,15203,2147760018,2147421366,2148009307,2147873728,2147643346,2147062198,2148256064,2147195529,2857,4,13,43146
1348918662,5811,989.2000122070312000,47.3642082214355500,674.6137084960938000,4.1456680297851560,54.0983695983886700,52,100,87,79,82,15207,2147759424,2147424713,2148011922,2147875940,2147643172,2147062601,2148261915,2147198372,183,5,13,23538
1348922262,5808,993.5399780273438000,47.8954315185546900,675.1599731445312000,4.1275901794433590,54.0305480957031250,53,99,84,82,82,15208,2147761389,2147419565,2148009782,2147875684,2147644022,2147059821,2148265581,2147195081,3042,5,13,24894
1348925862,5807,996.2999877929688000,47.8664894104003900,674.5333862304688000,4.1483230590820310,54.0263214111328100,53,102,83,80,82,15207,2147759113,2147422573,2148011675,2147873691,2147644004,2147063360,2148266651,2147196873,3237,4,13,62500
1348929462,5808,983.5700073242188000,47.9585189819335940,675.7728881835938000,4.1073060035705570,54.0239906311035160,53,101,83,79,81,15205,2147764205,2147423021,2148010121,2147876580,2147646208,2147065618,2148261321,2147199451,30,5,13,25675
1348933062,5809,984.8699951171875000,48.4915390014648440,677.4741821289062000,4.0509781837463380,53.9710807800293000,53,100,92,80,82,15205,2147763328,2147423113,2148012406,2147873837,2147639963,2147065252,2148261650,2147194788,453,5,13,26839
1348936662,5809,986.9600219726562000,48.1753311157226560,676.5848999023438000,4.0804271697998050,54.0058288574218750,52,99,88,78,80,15202,2147761956,2147423414,2148010660,2147874514,2147646070,2147058971,2148265819,2147198912,242,5,13,43049
1348940262,5814,988.0599975585938000,48.2260093688964840,676.2736206054688000,4.0907330513000490,53.9927215576171900,52,101,89,78,82,15203,2147761142,2147418761,2148012096,2147874148,2147643209,2147061248,2148263460,2147202112,30,5,13,50476
1348943862,5808,983.3900146484375000,48.5081405639648440,676.9578857421875000,4.0680751800537110,53.9631500244140600,52,100,91,78,81,15203,2147762477,2147421458,2148013366,2147874925,2147642697,2147067081,2148262628,2147196013,26,5,13,35861
1348947462,5810,987.2399902343750000,48.5178909301757800,675.8922119140625000,4.1033611297607420,53.9520416259765600,52,97,88,79,81,15203,2147763693,2147419373,2148011894,2147873956,2147643968,2147063725,2148262829,2147195273,3556,4,13,17077
1348947655,5810,986.6599731445312000,48.3851013183593750,675.6738891601562000,4.1105837821960450,53.9678916931152340,51,100,83,79,82,15239,2147763593,2147421595,2148010752,2147874194,2147645878,2147064274,2148263570,2147198208,36,5,13,5023
